Back to catalog

IRIDIUM 104

AliveCommunicationsPO
NORAD 41922·PAYLOAD·🇺🇸 United States

Launched Jan 14, 2017 from Vandenberg Space Force Base

Loading…

Next Passes (next 24 hours)

TLE

FreshSource: CelesTrak SupGP

Epoch: Sep 14, 2026, 08:50 UTC

1 41922C 17003F   26257.36840278  .00001934  00000+0  69154-3 0  2570
2 41922  86.3947  51.1653 0002442  96.4226 235.6797 14.34218780    17

Track IRIDIUM 104 in real time with AllMySat

Download on the App Store